CW9120 Weather Reports


time (UTC)temp
C
wind
direction
speed
KPH
gust
KPH
rain 1hr
cm
rain 24hr
cm
rain mn
cm
humidity
%
barometer
mb
20260506044556 18 159 0.0 16.1 0.00 0.00 0.00 59 1010.7
20260506043058 18 196 1.6 16.1 0.00 0.00 0.00 59 1010.4
20260506041602 18 78 1.6 12.9 0.00 0.00 0.00 58 1010.1
20260506040054 18 153 3.2 19.3 0.00 0.00 0.00 58 1010.0
20260506034558 18 107 3.2 12.9 0.00 0.00 0.00 58 1009.8
20260506033055 19 184 1.6 8.0 0.00 0.00 0.00 57 1009.8
20260506031555 20 232 0.0 17.7 0.00 0.00 0.00 55 1009.7
20260506030053 20 187 3.2 12.9 0.00 0.00 0.00 53 1009.7
20260506024550 20 69 1.6 12.9 0.00 0.00 0.00 53 1009.6
20260506023105 21 166 1.6 17.7 0.00 0.00 0.00 52 1009.4
20260506021549 21 127 6.4 16.1 0.00 0.00 0.00 51 1009.4
20260506020053 21 106 4.8 14.5 0.00 0.00 0.00 50 1009.4
20260506014551 22 181 1.6 14.5 0.00 0.00 0.00 51 1009.3
20260506013055 22 174 1.6 11.3 0.00 0.00 0.00 49 1009.3
20260506011549 22 113 0.0 14.5 0.00 0.00 0.00 50 1009.5
20260506010049 22 167 3.2 14.5 0.00 0.00 0.00 50 1009.4
20260506004546 22 117 1.6 14.5 0.00 0.00 0.00 48 1009.4
20260506003044 22 147 3.2 16.1 0.00 0.00 0.00 48 1009.4
20260506001553 22 80 3.2 14.5 0.00 0.00 0.00 47 1009.6
20260506000042 22 234 3.2 12.9 0.00 0.00 0.00 48 1009.7
20260505234548 22 133 3.2 12.9 0.00 0.00 0.00 46 1009.9
20260505233052 23 97 4.8 17.7 0.00 0.00 0.00 45 1009.9
20260505231548 23 117 4.8 12.9 0.00 0.00 0.00 42 1010.1
20260505230110 24 331 6.4 19.3 0.00 0.00 0.00 42 1010.1
20260505224544 23 144 4.8 14.5 0.00 0.00 0.00 43 1010.0
20260505223045 23 138 4.8 12.9 0.00 0.00 0.00 43 1010.1
20260505221546 23 142 4.8 14.5 0.00 0.00 0.00 43 1010.3
20260505220050 23 320 6.4 16.1 0.00 0.00 0.00 43 1010.4
20260505214536 22 80 3.2 14.5 0.00 0.00 0.00 44 1010.6
20260505213035 22 140 3.2 17.7 0.00 0.00 0.00 44 1010.6
20260505211532 23 126 1.6 12.9 0.00 0.00 0.00 43 1010.7
20260505210034 23 165 4.8 12.9 0.00 0.00 0.00 42 1010.7
20260505204528 23 169 1.6 14.5 0.00 0.00 0.00 42 1010.8
20260505203026 23 225 0.0 9.7 0.00 0.00 0.00 46 1010.9
20260505201522 22 222 3.2 11.3 0.00 0.00 0.00 47 1011.0
20260505200032 22 121 0.0 1.6 0.00 0.00 0.00 48 1011.2
20260505194519 21 121 0.0 9.7 0.00 0.00 0.00 48 1011.2
20260505193017 21 173 0.0 11.3 0.00 0.00 0.00 48 1011.3
20260505191524 21 152 0.0 6.4 0.00 0.00 0.00 45 1011.4
20260505190012 22 223 0.0 8.0 0.00 0.00 0.00 48 1011.5
20260505184510 21 209 0.0 6.4 0.00 0.00 0.00 46 1011.6
20260505183006 21 101 0.0 0.0 0.00 0.00 0.00 49 1011.6
20260505181502 20 103 0.0 1.6 0.00 0.00 0.00 48 1011.7
20260505180059 19 103 0.0 1.6 0.00 0.00 0.00 48 1011.8
20260505174606 19 341 0.0 0.0 0.00 0.00 0.00 49 1012.0
20260505173056 19 315 0.0 0.0 0.00 0.00 0.00 51 1012.0
20260505171552 19 348 0.0 1.6 0.00 0.00 0.00 55 1012.0
20260505170047 18 348 0.0 0.0 0.00 0.00 0.00 57 1012.0
20260505164549 17 348 0.0 1.6 0.00 0.00 0.00 58 1012.1
20260505163041 17 343 0.0 1.6 0.00 0.00 0.00 58 1012.2
20260505161542 16 346 0.0 0.0 0.00 0.00 0.00 60 1012.4
20260505153027 15 292 0.0 1.6 0.00 0.00 0.00 63 1012.7
20260505151522 13 292 0.0 0.0 0.00 0.00 0.00 65 1012.6
20260505130115 5 292 0.0 0.0 0.00 0.00 0.00 65 1011.8
20260505124510 5 292 0.0 0.0 0.00 0.00 0.00 65 1011.8
20260505123004 6 292 0.0 0.0 0.00 0.00 0.00 65 1011.9
20260505121514 6 292 0.0 0.0 0.00 0.00 0.00 66 1011.8
20260505120003 6 292 0.0 0.0 0.00 0.00 0.00 67 1011.8
20260505114558 6 292 0.0 0.0 0.00 0.00 0.00 68 1011.7
20260505113116 6 292 0.0 0.0 0.00 0.00 0.00 69 1011.5
20260505111557 6 292 0.0 0.0 0.00 0.00 0.00 70 1011.6
20260505110107 6 292 0.0 0.0 0.00 0.00 0.00 71 1011.4
20260505101559 7 292 0.0 0.0 0.00 0.00 0.00 72 1011.1
20260505100055 7 292 0.0 0.0 0.00 0.00 0.00 73 1011.0
20260505094556 7 292 0.0 0.0 0.00 0.00 0.00 74 1011.1
20260505093055 8 292 0.0 0.0 0.00 0.00 0.00 74 1011.1
20260505091548 8 292 0.0 0.0 0.00 0.00 0.00 74 1011.1
20260505090048 8 292 0.0 0.0 0.00 0.00 0.00 74 1011.1
20260505084554 9 292 0.0 0.0 0.00 0.00 0.00 75 1011.0
20260505083059 9 292 0.0 0.0 0.00 0.00 0.00 75 1010.8
20260505081557 10 292 0.0 0.0 0.00 0.00 0.00 75 1010.7
20260505080051 10 292 0.0 0.0 0.00 0.00 0.00 75 1010.5
20260505074554 10 292 0.0 0.0 0.00 0.00 0.00 75 1010.4
20260505073054 11 292 0.0 0.0 0.00 0.00 0.00 75 1010.4
20260505071553 11 292 0.0 0.0 0.00 0.00 0.00 74 1010.2
20260505070053 11 292 0.0 0.0 0.00 0.00 0.00 74 1010.1
20260505064549 12 292 0.0 0.0 0.00 0.00 0.00 74 1009.9
20260505063047 12 292 0.0 0.0 0.00 0.00 0.00 74 1009.9
20260505061549 12 292 0.0 0.0 0.00 0.00 0.00 73 1009.8
20260505060048 13 292 0.0 0.0 0.00 0.00 0.00 72 1009.7
20260505054554 13 292 0.0 0.0 0.00 0.00 0.00 72 1009.6
20260505053045 14 292 0.0 0.0 0.00 0.00 0.00 70 1009.4
20260505051545 15 292 0.0 0.0 0.00 0.00 0.00 69 1009.4